User: anonymous   Login
Location: Meriden
(44.0740°N, 93.3870°W)
Time: 04:08:23
(UTC-06:00)
Language:

Hamsat - Orbit

View from above orbital plane
View from above orbital plane
View from above satellite
View from above satellite

Ground track
Ground track

The orbit data is extracted from the following two-line orbital elements,

1 28650U 05017B   16038.89377671  .00001444  00000-0  16220-3 0  9997
2 28650  97.5959  26.0378 0023237 334.6161  25.3913 14.88041223582498
Epoch (UTC): 07 February 2016 21:27:02
Eccentricity: 0.0023237
inclination: 97.5959°
perigee height: 588 km
apogee height: 620 km
right ascension of ascending node: 26.0378°
argument of perigee: 334.6161°
revolutions per day: 14.88041223
mean anomaly at epoch: 25.3913°
orbit number at epoch: 58249

The dashed part of the orbit path shows where the satellite is in the earth's shadow,  

DLR